Regional Weather Roundup
Issued by NWS

Home | Current Version | Previous Version | Text Only | Print | Product List | Glossary On
Versions: 1 2 3 4 5 6 7 8 9 10 11 12 13 14 15 16 17 18 19 20 21 22 23 24 25 26 27 28 29 30 31 32 33 34 35 36 37 38 39 40 41 42 43 44 45 46 47 48 49 50
000
ASUS43 KLOT 191100
RWRIL

ILLINOIS REGIONAL WEATHER ROUNDUP
NATIONAL WEATHER SERVICE CHICAGO/ROMEOVILLE IL
600 AM CDT FRI SEP 19 2014

NOTE: "FAIR" INDICATES FEW OR NO CLOUDS BELOW 12,000 FEET WITH NO
SIGNIFICANT WEATHER AND/OR OBSTRUCTIONS TO VISIBILITY.

* THESE STATIONS ARE NOT UNDER NWS QUALITY CONTROL. THEY ALSO MAY NOT
  REPORT WEATHER SUCH AS PRECIPITATION OR FOG.

ILZ001-002-007-009-015-016-024-191200-
NORTHWEST ILLINOIS

CITY           SKY/WX    TMP DP  RH WIND       PRES   REMARKS
MOLINE         CLEAR     47  46  97 E6        30.10S FOG
STERLING*      CLOUDY    48  45  87 CALM      30.12S VSB<1/4
$$

ILZ003-004-008-010-011-017-018-191200-
NORTH CENTRAL ILLINOIS

CITY           SKY/WX    TMP DP  RH WIND       PRES   REMARKS
ROCKFORD       PTCLDY    55  53  93 SE5       30.16R FOG
FREEPORT*      FOG       53  51  95 SE6       30.14F VSB 1/2
ROCHELLE*        N/A     49  48  97 SE3       30.14R FOG
$$

ILZ005-006-012>014-019>023-191200-
NORTHEAST ILLINOIS

CITY           SKY/WX    TMP DP  RH WIND       PRES   REMARKS
CHICAGO-OHARE  PTCLDY    55  49  80 SE5       30.16R
CHICAGO-MIDWAY PTCLDY    58  51  78 SE6       30.16R
AURORA         CLEAR     47  45  93 E3        30.15R FOG
LANSING*       CLEAR     53  50  89 SE5       30.17R
WAUKEGAN       CLEAR     56  53  90 S6        30.15R
DUPAGE AIRPORT CLEAR     53  49  86 SE3       30.15R
WHEELING       CLEAR     51  48  89 CALM      30.17R
NORTHERLY ISL    N/A     57  50  77 S6          N/A
$$

LMZ740>746-191200-
SOUTHERN LAKE MICHIGAN

STATION/POSITION SKY/WX   TEMP    WIND        PRES    VSBY  WAVE
                          AIR SEA DIR/SP/G                  HT/PER
                          (F)     (DEG/KT/KT) (MB)    (MI)  (FT/S)
SOUTHERN BUOY              62 62  160/ 16/ 19 1021.4R         3/ 4
WAUKEGAN HARBOR            60     190/  8/ 11   N/A
HARRISON CRIB              60     160/ 18/ 22   N/A
BURNHAM HARBOR             58     160/  6/ 12   N/A
CALUMET HARBOR             57     150/  7/ 10 1019.8R
MICHIGAN CITY              56     120/ 12/ 17   N/A
MICHIGAN CITY 6N           58 65  140/ 14/ 17   N/A           2/ 2
ST. JOSEPH                 56 66  120/ 14/ 17   N/A           1/ 2
$$

ILZ025>027-034>036-040-047-049-050-058-095>099-191200-
WEST-CENTRAL ILLINOIS

CITY           SKY/WX    TMP DP  RH WIND       PRES   REMARKS
QUINCY         CLEAR     53  49  86 SE6       30.08S
GALESBURG*     CLEAR     50  48  92 E5        30.11S FOG
MACOMB*        CLEAR     46  46 100 E3        30.12S
$$

ILZ028>032-037-038-041>044-048-051>054-059>061-191200-
CENTRAL ILLINOIS

CITY           SKY/WX    TMP DP  RH WIND       PRES   REMARKS
DECATUR        CLEAR     46  44  93 NE5       30.13R
PEORIA         CLEAR     52  49  89 CALM      30.12S
SPRINGFIELD    CLEAR     50  47  89 NE3       30.12R
TAYLORVILLE    NOT AVBL
$$

ILZ033-039-045-046-055>057-062-063-191200-
EAST-CENTRAL ILLINOIS

CITY           SKY/WX    TMP DP  RH WIND       PRES   REMARKS
CHAMPAIGN      CLEAR     50  47  89 E8        30.15R
MATTOON        CLEAR     52  47  83 E6        30.12R
$$

ILZ079-100>102-191200-
SOUTHWEST ILLINOIS

CITY           SKY/WX    TMP DP  RH WIND       PRES   REMARKS
BELLEVILLE     CLEAR     52  52 100 W3        30.08R FOG
CAHOKIA*       FOG       51  50  96 CALM      30.08S VSB 1
SPARTA*        CLEAR     51  51  99 CALM      30.08S
$$

ILZ064>066-069>071-074>076-080>082-084>086-088>090-092>094-191200-
SOUTH-CENTRAL ILLINOIS

CITY           SKY/WX    TMP DP  RH WIND       PRES   REMARKS
CARBONDALE     CLEAR     49  48  97 CALM      30.07R FOG
MARION         FOG       52  50  93 CALM      30.08R VSB 1
MT. VERNON     CLEAR     54  46  76 N6        30.09R
$$

ILZ067-068-072-073-078-083-087-091-191200-
SOUTHEAST ILLINOIS

CITY           SKY/WX    TMP DP  RH WIND       PRES   REMARKS
LAWRENCEVILLE  CLEAR     50  48  93 NE5       30.11S
ROBINSON*      FOG       46  46  99 CALM      30.12S VSB 1/2
$$

ABBREVIATIONS USED IN REMARKS
   TC - TEMPERATURE IN CELSIUS
  WCI - WIND CHILL INDEX
   HX - HEAT INDEX
  VSB - VISIBILITY
$$




USA.gov is the U.S. government's official web portal to all federal, state and local government web resources and services.